Location: Auckland
(36.8670°S, 174.7670°E)
Time: 18:54:08
(UTC+13:00)

ISS - Visible Passes

Search period start: 01 December 2021 00:00
Search period end: 11 December 2021 00:00
Orbit: 417 x 423 km, 51.6° (Epoch: 01 December)

Date Brightness Start Highest point End Pass type
(mag) Time Alt. Az. Time Alt. Az. Time Alt. Az.
01 Dec -2.8 03:29:07 47° S 03:29:07 47° S 03:31:58 10° SE visible
01 Dec -1.0 05:04:46 10° SW 05:06:04 12° SSW 05:07:23 10° S visible
02 Dec -1.3 02:43:32 22° SE 02:43:32 22° SE 02:44:51 10° SE visible
02 Dec -1.1 04:16:32 10° WSW 04:18:39 15° SSW 04:20:47 10° SSE visible
03 Dec -1.7 03:30:50 21° SW 03:31:16 21° SSW 03:33:58 10° SSE visible
04 Dec -1.4 02:45:08 24° S 02:45:08 24° S 02:47:03 10° SSE visible
05 Dec -0.6 01:59:22 14° SE 01:59:22 14° SE 02:00:01 10° SE visible
05 Dec -0.8 03:32:54 10° SW 03:34:08 11° SSW 03:35:23 10° S visible
06 Dec -1.0 02:46:29 15° SSW 02:46:40 15° SSW 02:48:46 10° SSE visible
07 Dec -0.8 02:00:35 17° S 02:00:35 17° S 02:01:56 10° SSE visible
08 Dec -0.5 01:14:34 12° SSE 01:14:34 12° SSE 01:14:58 10° SSE visible
09 Dec -0.5 02:01:21 11° SSW 02:02:03 11° SSW 02:03:14 10° S visible
09 Dec -0.5 05:16:35 10° S 05:18:24 14° SSE 05:20:13 10° SE visible
10 Dec -0.6 01:15:00 15° SSW 01:15:00 15° SSW 01:16:36 10° SSE visible
10 Dec -0.2 04:30:07 10° S 04:30:53 11° SSE 04:31:38 10° SSE visible
